Location: Crescent
(42.8242°N, 73.7329°W)
Time: 21:57:39
(UTC+00:00)

Vanguard 2 Rocket - Pass Details

Date: 21 February 2026
Orbit: 553 x 3286 km, 32.9° (Epoch: 9 March)

Event Time Altitude Azimuth Distance (km) Brightness Sun altitude
Rises 21:06:42 0° 275° (W) 6,827 12.4 14.1°
Reaches altitude 10° 21:12:09 10° 269° (W) 5,466 12.2 13.2°
Maximum altitude 21:25:16 38° 210° (SSW) 2,684 10.2 11.1°
Drops below altitude 10° 21:33:24 10° 146° (SE) 3,392 9.8 9.7°
Sets 21:35:58 0° 137° (SE) 4,060 10.0 9.3°
